OBJECT G, 60241

Orbit data source: Space-Track

You're viewing an Uncataloged Satellite

Recently launched and/or uncataloged satellites may have evolving metadata. Metadata may include but not limited to: Owner, Maufacturer, Bus, Motor, and Mission.

OBJECT G, 60241 is a satellite in LEO that was launched on Tue, 09 Jul 2024 UTC via an ARIANE 62 launch vehicle from the French Guiana (FRGUI). Unknown objects in Earth's orbit typically refer to objects detected orbiting the Earth but have not yet been identified or cataloged. These objects could be anything from previously untracked satellites, spent rocket stages, debris from satellite collisions, or even natural meteoroids temporarily captured by Earth's gravity.

Loading next visibility...
Identifier
60241, 2024-128G
Orbit
LEO
Last TLE update
2 days ago
Origin
Flag of TBDORBMAT (TBD)
Manufacturer
ORBMAT
Mission
Commercial Technology
Bus & Motor
CUBESAT 3U, Unknown motor
Mass
5 kg wet, 5 kg dry
Launch date (UTC)
2024-07-09 (11 months ago)
Launch vehicle
ARIANE 62
Launch site
French Guiana (FRGUI)
Object type
Unknown
Shape & HBR
Box, 0.3 m
Radar Cross Section
0.035 m², Small (<0.1 m²)

Expand to show TLE details & history

TLE from 2 days ago
0 OBJECT G
1 60241U 24128G   25172.04272788  .00003474  00000-0  26321-3 0  9990
2 60241  61.9929  39.0088 0052657  60.4079 300.2244 15.03247342 51945
Epoch: 2025-06-21T01:01Z
TLE epoch observation values (Epoch: 2025-06-21T01:01:31.688Z)
Latitude
-0.00007°
Longitude
114.13935°
Altitude
540.422 km
Speed
7.603 km/s
True Right ascension
02h 36m 02s
True Declination
0° 00' 00"
Sunlit
Object was in daylight at epoch
Visualization orbit readout
Latitude
49.52898°
Longitude
146.84424°
Altitude
526.961 km
Speed
7.625 km/s
Apparent Right ascension
10h 18m 08s
Apparent Declination
24° 02' 06"
Sunlit
Object is in daylight
Visualization observer readout
Local Sidereal Time
02:39:48
Azimuth
56.191° ENE
Elevation
-1.722°
Doppler factor
1
Orbital elements
Apogee altitude
592.333 km
Perigee altitude
519.308 km
Semi-major axis
6,933.957 km
Eccentricity
0.00527
Inclination
61.9929°
RAAN
39.0088°
Arg. of periapsis
60.4079°
True anomaly
Unknown
Mean anomaly
300.2244°
Eccentric anomaly
Unknown
Mean motion
3.75899 °/min
Orbital period
95.77 mins
BSTAR
0.00026321
Loading maneuver chart data...
Loading SW <> Apogee altitude chart data...
Loading historical data...
Loading historical data...
Loading historical data...
Loading historical data...
Loading historical data...
Loading historical data...
Loading historical data...

OBJECT G Visibility forecast

Observer location: undefined°, undefined°

Span
Click to sort rows by Start time (UTC) header in descending order
Start Az.
Max El. time (UTC)
Max El. Az.
Max El.
End time (UTC)
End Az.
6 mins2025-06-22 17:06:00.074Z229.04° WSW2025-06-22 17:09:00.074Z319.011° NNW41.497°2025-06-22 17:12:00.074Z27.581° NE
6 mins2025-06-23 01:28:00.074Z314.395° NW2025-06-23 01:31:00.074Z206.39° SW41.266°2025-06-23 01:34:00.074Z157.047° SSE
|